Time,TemperatureF,DewpointF,PressureIn,WindDirection,WindDirectionDegrees,WindSpeedMPH,WindSpeedGustMPH,Humidity,HourlyPrecipIn,Conditions,Clouds,dailyrainin,SoftwareType,DateUTC
2013-04-22 00:03:00,43.0,24.0,30.40,North,355,3.0,7.0,46,0.00,,,0.00,,2013-04-22 04:03:00,
2013-04-22 00:12:00,43.0,24.0,30.40,North,355,3.0,7.0,46,0.00,,,0.00,,2013-04-22 04:12:00,
2013-04-22 00:23:00,43.0,24.0,30.44,SSE,153,5.0,9.0,47,0.00,,,0.00,,2013-04-22 04:23:00,
2013-04-22 00:33:00,43.0,25.0,30.43,SSW,195,2.0,10.0,48,0.00,,,0.00,,2013-04-22 04:33:00,
2013-04-22 00:43:00,43.0,25.0,30.43,SSW,195,2.0,10.0,48,0.00,,,0.00,,2013-04-22 04:43:00,
2013-04-22 00:53:00,43.0,25.0,30.43,South,175,3.0,8.0,48,0.00,,,0.00,,2013-04-22 04:53:00,
2013-04-22 01:03:00,43.0,25.0,30.43,South,180,0.0,7.0,49,0.00,,,0.00,,2013-04-22 05:03:00,
2013-04-22 01:12:00,43.0,25.0,30.43,South,180,0.0,7.0,49,0.00,,,0.00,,2013-04-22 05:12:00,
2013-04-22 01:22:00,42.0,24.0,30.43,SW,215,2.0,8.0,49,0.00,,,0.00,,2013-04-22 05:22:00,
2013-04-22 01:32:00,42.0,25.0,30.43,SSW,202,2.0,6.0,50,0.00,,,0.00,,2013-04-22 05:32:00,
2013-04-22 01:42:00,42.0,25.0,30.43,SSW,202,2.0,6.0,50,0.00,,,0.00,,2013-04-22 05:42:00,
2013-04-22 01:52:00,42.0,25.0,30.42,WSW,257,1.0,7.0,51,0.00,,,0.00,,2013-04-22 05:52:00,
2013-04-22 02:02:00,42.0,25.0,30.42,South,183,1.0,5.0,51,0.00,,,0.00,,2013-04-22 06:02:00,
2013-04-22 02:12:00,42.0,25.0,30.42,South,183,1.0,5.0,51,0.00,,,0.00,,2013-04-22 06:12:00,
2013-04-22 02:21:00,41.0,25.0,30.41,SSE,167,1.0,4.0,52,0.00,,,0.00,,2013-04-22 06:21:00,
2013-04-22 02:32:00,41.0,25.0,30.41,NNE,20,1.0,5.0,53,0.00,,,0.00,,2013-04-22 06:32:00,
2013-04-22 02:42:00,41.0,25.0,30.41,NNE,20,1.0,5.0,53,0.00,,,0.00,,2013-04-22 06:42:00,
2013-04-22 02:52:00,41.0,25.0,30.40,SSE,164,2.0,6.0,53,0.00,,,0.00,,2013-04-22 06:52:00,
2013-04-22 03:01:00,41.0,26.0,30.40,SSW,192,1.0,5.0,54,0.00,,,0.00,,2013-04-22 07:01:00,
2013-04-22 03:12:00,41.0,26.0,30.40,SSW,192,1.0,5.0,54,0.00,,,0.00,,2013-04-22 07:12:00,
2013-04-22 03:21:00,40.0,25.0,30.40,South,171,1.0,6.0,54,0.00,,,0.00,,2013-04-22 07:21:00,
2013-04-22 03:32:00,40.0,26.0,30.39,SE,136,1.0,8.0,56,0.00,,,0.00,,2013-04-22 07:32:00,
2013-04-22 03:42:00,40.0,26.0,30.39,SE,136,1.0,8.0,56,0.00,,,0.00,,2013-04-22 07:42:00,
2013-04-22 03:52:00,40.0,26.0,30.39,SSE,167,2.0,7.0,56,0.00,,,0.00,,2013-04-22 07:52:00,
2013-04-22 04:02:00,40.0,26.0,30.39,SSE,166,2.0,6.0,56,0.00,,,0.00,,2013-04-22 08:02:00,
2013-04-22 04:11:00,40.0,26.0,30.39,SSE,166,2.0,6.0,56,0.00,,,0.00,,2013-04-22 08:11:00,
2013-04-22 04:22:00,40.0,25.0,30.39,WNW,300,1.0,7.0,55,0.00,,,0.00,,2013-04-22 08:22:00,
2013-04-22 04:32:00,40.0,26.0,30.39,SSW,196,0.0,6.0,56,0.00,,,0.00,,2013-04-22 08:32:00,
2013-04-22 04:42:00,40.0,26.0,30.39,SSW,196,0.0,6.0,56,0.00,,,0.00,,2013-04-22 08:42:00,
2013-04-22 04:53:00,40.0,26.0,30.38,South,187,0.0,7.0,56,0.00,,,0.00,,2013-04-22 08:53:00,
2013-04-22 05:01:00,40.0,26.0,30.39,South,183,1.0,7.0,56,0.00,,,0.00,,2013-04-22 09:01:00,
2013-04-22 05:11:00,40.0,26.0,30.39,South,183,1.0,7.0,56,0.00,,,0.00,,2013-04-22 09:11:00,
2013-04-22 05:21:00,40.0,26.0,30.39,ESE,111,2.0,6.0,56,0.00,,,0.00,,2013-04-22 09:21:00,
2013-04-22 05:33:00,40.0,26.0,30.38,SSW,213,1.0,6.0,56,0.00,,,0.00,,2013-04-22 09:33:00,
2013-04-22 05:42:00,40.0,26.0,30.38,SSW,213,1.0,6.0,56,0.00,,,0.00,,2013-04-22 09:42:00,
2013-04-22 05:52:00,40.0,26.0,30.39,North,5,1.0,6.0,56,0.00,,,0.00,,2013-04-22 09:52:00,
2013-04-22 06:03:00,39.0,25.0,30.38,NNW,340,2.0,6.0,57,0.00,,,0.00,,2013-04-22 10:03:00,
2013-04-22 06:12:00,39.0,25.0,30.38,NNW,340,2.0,6.0,57,0.00,,,0.00,,2013-04-22 10:12:00,
2013-04-22 06:22:00,39.0,25.0,30.38,SSW,193,0.0,6.0,57,0.00,,,0.00,,2013-04-22 10:22:00,
2013-04-22 06:32:00,38.0,25.0,30.39,East,79,0.0,6.0,58,0.00,,,0.00,,2013-04-22 10:32:00,
2013-04-22 06:42:00,38.0,25.0,30.39,East,79,0.0,6.0,58,0.00,,,0.00,,2013-04-22 10:42:00,
2013-04-22 06:53:00,38.0,25.0,30.39,NE,55,2.0,6.0,58,0.00,,,0.00,,2013-04-22 10:53:00,
2013-04-22 07:02:00,38.0,25.0,30.39,SSE,160,1.0,7.0,59,0.00,,,0.00,,2013-04-22 11:02:00,
2013-04-22 07:12:00,38.0,25.0,30.39,SSE,160,1.0,7.0,59,0.00,,,0.00,,2013-04-22 11:12:00,
2013-04-22 07:22:00,38.0,25.0,30.39,SSE,160,3.0,7.0,59,0.00,,,0.00,,2013-04-22 11:22:00,
2013-04-22 07:32:00,38.0,25.0,30.40,North,355,2.0,5.0,58,0.00,,,0.00,,2013-04-22 11:32:00,
2013-04-22 07:42:00,38.0,25.0,30.40,North,355,2.0,5.0,58,0.00,,,0.00,,2013-04-22 11:42:00,
2013-04-22 07:52:00,39.0,25.0,30.40,South,186,2.0,9.0,58,0.00,,,0.00,,2013-04-22 11:52:00,
2013-04-22 08:02:00,39.0,25.0,30.40,South,183,2.0,6.0,57,0.00,,,0.00,,2013-04-22 12:02:00,
2013-04-22 08:12:00,39.0,25.0,30.40,South,183,2.0,6.0,57,0.00,,,0.00,,2013-04-22 12:12:00,
2013-04-22 08:21:00,40.0,26.0,30.40,SE,140,2.0,8.0,57,0.00,,,0.00,,2013-04-22 12:21:00,
2013-04-22 08:32:00,41.0,27.0,30.40,South,185,2.0,10.0,56,0.00,,,0.00,,2013-04-22 12:32:00,
2013-04-22 08:42:00,41.0,27.0,30.40,South,185,2.0,10.0,56,0.00,,,0.00,,2013-04-22 12:42:00,
2013-04-22 08:52:00,42.0,27.0,30.40,NNW,337,1.0,9.0,55,0.00,,,0.00,,2013-04-22 12:52:00,
2013-04-22 09:01:00,42.0,26.0,30.40,South,188,2.0,10.0,53,0.00,,,0.00,,2013-04-22 13:01:00,
2013-04-22 09:11:00,42.0,26.0,30.40,South,188,2.0,10.0,53,0.00,,,0.00,,2013-04-22 13:11:00,
2013-04-22 09:22:00,43.0,27.0,30.40,SSE,150,2.0,7.0,52,0.00,,,0.00,,2013-04-22 13:22:00,
2013-04-22 09:32:00,44.0,27.0,30.40,South,182,2.0,8.0,51,0.00,,,0.00,,2013-04-22 13:32:00,
2013-04-22 09:42:00,44.0,27.0,30.40,South,182,2.0,8.0,51,0.00,,,0.00,,2013-04-22 13:42:00,
2013-04-22 09:53:00,45.0,27.0,30.40,SSE,158,3.0,8.0,50,0.00,,,0.00,,2013-04-22 13:53:00,
2013-04-22 10:02:00,47.0,28.0,30.40,SSW,196,4.0,9.0,48,0.00,,,0.00,,2013-04-22 14:02:00,
2013-04-22 10:12:00,47.0,28.0,30.40,SSW,196,4.0,9.0,48,0.00,,,0.00,,2013-04-22 14:12:00,
2013-04-22 10:21:00,48.0,28.0,30.40,WSW,250,5.0,12.0,46,0.00,,,0.00,,2013-04-22 14:21:00,
2013-04-22 10:33:00,48.0,27.0,30.40,SSE,155,3.0,11.0,44,0.00,,,0.00,,2013-04-22 14:33:00,
2013-04-22 10:42:00,48.0,27.0,30.40,SSE,155,3.0,11.0,44,0.00,,,0.00,,2013-04-22 14:42:00,
2013-04-22 10:52:00,50.0,29.0,30.40,West,262,1.0,8.0,45,0.00,,,0.00,,2013-04-22 14:52:00,
2013-04-22 11:02:00,51.0,29.0,30.40,NNE,30,3.0,12.0,43,0.00,,,0.00,,2013-04-22 15:02:00,
2013-04-22 11:12:00,51.0,29.0,30.40,NNE,30,3.0,12.0,43,0.00,,,0.00,,2013-04-22 15:12:00,
2013-04-22 11:22:00,51.0,28.0,30.40,SW,221,3.0,11.0,40,0.00,,,0.00,,2013-04-22 15:22:00,
2013-04-22 11:33:00,52.0,28.0,30.39,SSE,163,4.0,11.0,39,0.00,,,0.00,,2013-04-22 15:33:00,
2013-04-22 11:43:00,52.0,28.0,30.39,SSE,163,4.0,11.0,39,0.00,,,0.00,,2013-04-22 15:43:00,
2013-04-22 11:53:00,53.0,31.0,30.39,North,360,2.0,9.0,42,0.00,,,0.00,,2013-04-22 15:53:00,
2013-04-22 12:03:00,54.0,30.0,30.38,SSE,160,3.0,9.0,39,0.00,,,0.00,,2013-04-22 16:03:00,
2013-04-22 12:12:00,54.0,30.0,30.38,SSE,160,3.0,9.0,39,0.00,,,0.00,,2013-04-22 16:12:00,
2013-04-22 12:23:00,54.0,29.0,30.37,SE,129,2.0,9.0,38,0.00,,,0.00,,2013-04-22 16:23:00,
2013-04-22 12:33:00,55.0,31.0,30.37,East,96,2.0,8.0,40,0.00,,,0.00,,2013-04-22 16:33:00,
2013-04-22 12:42:00,55.0,31.0,30.37,East,96,2.0,8.0,40,0.00,,,0.00,,2013-04-22 16:42:00,
2013-04-22 12:52:00,56.0,31.0,30.36,NNE,30,2.0,15.0,39,0.00,,,0.00,,2013-04-22 16:52:00,
2013-04-22 13:02:00,56.0,32.0,30.36,SE,135,2.0,9.0,40,0.00,,,0.00,,2013-04-22 17:02:00,
2013-04-22 13:12:00,56.0,32.0,30.36,SE,135,2.0,9.0,40,0.00,,,0.00,,2013-04-22 17:12:00,
2013-04-22 13:22:00,57.0,30.0,30.35,NNE,22,4.0,12.0,36,0.00,,,0.00,,2013-04-22 17:22:00,
2013-04-22 13:32:00,57.0,30.0,30.34,SE,128,3.0,8.0,36,0.00,,,0.00,,2013-04-22 17:32:00,
2013-04-22 13:42:00,57.0,30.0,30.34,SE,128,3.0,8.0,36,0.00,,,0.00,,2013-04-22 17:42:00,
2013-04-22 13:52:00,58.0,29.0,30.33,SW,227,0.0,8.0,33,0.00,,,0.00,,2013-04-22 17:52:00,
2013-04-22 14:01:00,58.0,30.0,30.32,NNE,33,2.0,9.0,34,0.00,,,0.00,,2013-04-22 18:01:00,
2013-04-22 14:12:00,58.0,30.0,30.32,NNE,33,2.0,9.0,34,0.00,,,0.00,,2013-04-22 18:12:00,
2013-04-22 14:22:00,59.0,30.0,30.31,NE,54,2.0,11.0,33,0.00,,,0.00,,2013-04-22 18:22:00,
2013-04-22 14:32:00,59.0,30.0,30.31,NE,39,3.0,9.0,33,0.00,,,0.00,,2013-04-22 18:32:00,
2013-04-22 14:42:00,59.0,30.0,30.31,NE,39,3.0,9.0,33,0.00,,,0.00,,2013-04-22 18:42:00,
2013-04-22 14:52:00,59.0,29.0,30.31,SSE,150,1.0,10.0,32,0.00,,,0.00,,2013-04-22 18:52:00,
2013-04-22 15:01:00,60.0,31.0,30.30,SE,128,6.0,11.0,33,0.00,,,0.00,,2013-04-22 19:01:00,
2013-04-22 15:12:00,60.0,31.0,30.30,SE,128,6.0,11.0,33,0.00,,,0.00,,2013-04-22 19:12:00,
2013-04-22 15:22:00,60.0,30.0,30.29,SW,219,3.0,7.0,32,0.00,,,0.00,,2013-04-22 19:22:00,
2013-04-22 15:32:00,60.0,29.0,30.29,NE,51,2.0,10.0,31,0.00,,,0.00,,2013-04-22 19:32:00,
2013-04-22 15:42:00,60.0,29.0,30.29,NE,51,2.0,10.0,31,0.00,,,0.00,,2013-04-22 19:42:00,
2013-04-22 15:53:00,61.0,30.0,30.29,NE,50,0.0,11.0,31,0.00,,,0.00,,2013-04-22 19:53:00,
2013-04-22 16:02:00,61.0,33.0,30.28,South,189,3.0,8.0,35,0.00,,,0.00,,2013-04-22 20:02:00,
2013-04-22 16:11:00,61.0,33.0,30.28,South,189,3.0,8.0,35,0.00,,,0.00,,2013-04-22 20:11:00,
2013-04-22 16:22:00,61.0,29.0,30.28,SSW,192,2.0,10.0,29,0.00,,,0.00,,2013-04-22 20:22:00,
2013-04-22 16:32:00,61.0,29.0,30.27,SSE,161,3.0,10.0,30,0.00,,,0.00,,2013-04-22 20:32:00,
2013-04-22 16:42:00,61.0,29.0,30.27,SSE,161,3.0,10.0,30,0.00,,,0.00,,2013-04-22 20:42:00,
2013-04-22 16:52:00,62.0,26.0,30.27,NE,34,1.0,7.0,25,0.00,,,0.00,,2013-04-22 20:52:00,
2013-04-22 17:02:00,61.0,24.0,30.26,East,85,2.0,8.0,24,0.00,,,0.00,,2013-04-22 21:02:00,
2013-04-22 17:12:00,61.0,24.0,30.26,East,85,2.0,8.0,24,0.00,,,0.00,,2013-04-22 21:12:00,
2013-04-22 17:22:00,62.0,26.0,30.25,SSE,157,5.0,7.0,25,0.00,,,0.00,,2013-04-22 21:22:00,
2013-04-22 17:32:00,61.0,23.0,30.25,SSE,163,3.0,11.0,23,0.00,,,0.00,,2013-04-22 21:32:00,
2013-04-22 17:43:00,61.0,23.0,30.25,SSE,163,3.0,11.0,23,0.00,,,0.00,,2013-04-22 21:43:00,
2013-04-22 17:53:00,61.0,24.0,30.24,SE,124,4.0,9.0,24,0.00,,,0.00,,2013-04-22 21:53:00,
2013-04-22 18:03:00,61.0,24.0,30.24,NE,40,1.0,10.0,24,0.00,,,0.00,,2013-04-22 22:03:00,
2013-04-22 18:12:00,61.0,24.0,30.24,NE,40,1.0,10.0,24,0.00,,,0.00,,2013-04-22 22:12:00,
2013-04-22 18:22:00,61.0,24.0,30.27,SSE,163,2.0,10.0,24,0.00,,,0.00,,2013-04-22 22:22:00,
2013-04-22 18:33:00,61.0,25.0,30.26,ESE,106,1.0,8.0,25,0.00,,,0.00,,2013-04-22 22:33:00,
2013-04-22 18:42:00,61.0,25.0,30.26,ESE,106,1.0,8.0,25,0.00,,,0.00,,2013-04-22 22:42:00,
2013-04-22 18:52:00,61.0,24.0,30.27,ENE,61,2.0,9.0,24,0.00,,,0.00,,2013-04-22 22:52:00,
2013-04-22 19:02:00,60.0,25.0,30.26,North,350,2.0,9.0,26,0.00,,,0.00,,2013-04-22 23:02:00,
2013-04-22 19:11:00,60.0,25.0,30.26,North,350,2.0,9.0,26,0.00,,,0.00,,2013-04-22 23:11:00,
2013-04-22 19:22:00,59.0,24.0,30.26,NNW,333,3.0,7.0,26,0.00,,,0.00,,2013-04-22 23:22:00,
2013-04-22 19:33:00,58.0,25.0,30.26,SSW,209,0.0,7.0,28,0.00,,,0.00,,2013-04-22 23:33:00,
2013-04-22 19:42:00,58.0,25.0,30.26,SSW,209,0.0,7.0,28,0.00,,,0.00,,2013-04-22 23:42:00,
2013-04-22 19:52:00,57.0,24.0,30.26,SSE,163,1.0,12.0,28,0.00,,,0.00,,2013-04-22 23:52:00,
2013-04-22 20:02:00,56.0,25.0,30.26,SSE,161,1.0,6.0,30,0.00,,,0.00,,2013-04-23 00:02:00,
2013-04-22 20:12:00,56.0,25.0,30.26,SSE,161,1.0,6.0,30,0.00,,,0.00,,2013-04-23 00:12:00,
2013-04-22 20:21:00,54.0,26.0,30.26,NE,45,3.0,10.0,33,0.00,,,0.00,,2013-04-23 00:21:00,
2013-04-22 20:32:00,53.0,26.0,30.27,SSE,166,1.0,10.0,35,0.00,,,0.00,,2013-04-23 00:32:00,
2013-04-22 20:42:00,53.0,26.0,30.27,SSE,166,1.0,10.0,35,0.00,,,0.00,,2013-04-23 00:42:00,
2013-04-22 20:52:00,52.0,27.0,30.27,NW,304,2.0,5.0,38,0.00,,,0.00,,2013-04-23 00:52:00,
2013-04-22 21:01:00,51.0,28.0,30.27,NE,45,1.0,10.0,41,0.00,,,0.00,,2013-04-23 01:01:00,
2013-04-22 21:11:00,51.0,28.0,30.27,NE,45,1.0,10.0,41,0.00,,,0.00,,2013-04-23 01:11:00,
2013-04-22 21:22:00,50.0,28.0,30.27,South,190,3.0,5.0,43,0.00,,,0.00,,2013-04-23 01:22:00,
2013-04-22 21:32:00,49.0,29.0,30.27,NE,38,0.0,7.0,45,0.00,,,0.00,,2013-04-23 01:32:00,
2013-04-22 21:42:00,49.0,29.0,30.27,NE,38,0.0,7.0,45,0.00,,,0.00,,2013-04-23 01:42:00,
2013-04-22 21:52:00,49.0,29.0,30.28,NE,51,2.0,5.0,46,0.00,,,0.00,,2013-04-23 01:52:00,
2013-04-22 22:02:00,48.0,29.0,30.28,NNE,27,1.0,8.0,48,0.00,,,0.00,,2013-04-23 02:02:00,
2013-04-22 22:12:00,48.0,29.0,30.28,NNE,27,1.0,8.0,48,0.00,,,0.00,,2013-04-23 02:12:00,
2013-04-22 22:22:00,48.0,30.0,30.28,ESE,103,2.0,7.0,50,0.00,,,0.00,,2013-04-23 02:22:00,
2013-04-22 22:32:00,47.0,30.0,30.28,NE,48,0.0,5.0,51,0.00,,,0.00,,2013-04-23 02:32:00,
2013-04-22 22:42:00,47.0,30.0,30.28,NE,48,0.0,5.0,51,0.00,,,0.00,,2013-04-23 02:42:00,
2013-04-22 22:52:00,47.0,30.0,30.28,SSE,149,3.0,8.0,52,0.00,,,0.00,,2013-04-23 02:52:00,
2013-04-22 23:01:00,47.0,31.0,30.28,South,189,3.0,8.0,53,0.00,,,0.00,,2013-04-23 03:01:00,
2013-04-22 23:11:00,47.0,31.0,30.28,South,189,3.0,8.0,53,0.00,,,0.00,,2013-04-23 03:11:00,
2013-04-22 23:21:00,46.0,30.0,30.28,East,88,3.0,12.0,54,0.00,,,0.00,,2013-04-23 03:21:00,
2013-04-22 23:33:00,46.0,31.0,30.27,SW,226,2.0,9.0,56,0.00,,,0.00,,2013-04-23 03:33:00,
2013-04-22 23:43:00,46.0,31.0,30.27,SW,226,2.0,9.0,56,0.00,,,0.00,,2013-04-23 03:43:00,
2013-04-22 23:53:00,45.0,31.0,30.27,SW,236,2.0,7.0,57,0.00,,,0.00,,2013-04-23 03:53:00,